FW0710 Weather Reports


time (UTC)temp
C
wind
direction
speed
KPH
gust
KPH
rain 1hr
cm
rain 24hr
cm
rain mn
cm
humidity
%
barometer
mb
20260509022043 8 0 0.0 0.0 0.00 0.00 0.00 56 1002.3
20260509021548 9 0 0.0 0.0 0.00 0.00 0.00 53 1002.5
20260509021042 10 0 0.0 0.0 0.00 0.00 0.00 54 1002.4
20260509020542 10 0 0.0 0.0 0.00 0.00 0.00 51 1002.2
20260509020055 11 0 0.0 0.0 0.00 0.00 0.00 51 1002.3
20260509015542 11 0 0.0 0.0 0.00 0.00 0.00 45 1002.3
20260509015042 11 0 0.0 0.0 0.00 0.00 0.00 45 1002.5
20260509014551 12 0 0.0 0.0 0.00 0.00 0.00 44 1002.6
20260509014041 12 0 0.0 0.0 0.00 0.00 0.00 46 1002.6
20260509013542 13 0 0.0 0.0 0.00 0.00 0.00 44 1002.5
20260509013050 13 0 0.0 0.0 0.00 0.00 0.00 42 1002.5
20260509012542 13 0 0.0 0.0 0.00 0.00 0.00 42 1002.5
20260509012043 13 0 0.0 0.0 0.00 0.00 0.00 41 1002.7
20260509011545 13 0 0.0 0.0 0.00 0.00 0.00 41 1002.7
20260509011042 13 0 0.0 0.0 0.00 0.00 0.00 42 1002.7
20260509010543 13 0 0.0 0.0 0.00 0.00 0.00 42 1002.8
20260509010049 13 0 0.0 0.0 0.00 0.00 0.00 42 1002.8
20260509005543 13 0 0.0 0.0 0.00 0.00 0.00 42 1003.0
20260509005040 13 0 0.0 1.6 0.00 0.00 0.00 41 1003.0
20260509004606 13 0 0.0 8.0 0.00 0.00 0.00 41 1003.1
20260509004040 14 0 0.0 9.7 0.00 0.00 0.00 40 1003.0
20260509003544 14 0 0.0 9.7 0.00 0.00 0.00 39 1003.2
20260509003051 15 0 0.0 14.5 0.00 0.00 0.00 39 1003.2
20260509002542 15 0 1.6 14.5 0.00 0.00 0.00 38 1003.2
20260509002044 15 323 3.2 14.5 0.00 0.00 0.00 37 1003.3
20260509001549 15 293 0.0 11.3 0.00 0.00 0.00 37 1003.2
20260509001039 15 0 0.0 24.1 0.00 0.00 0.00 37 1003.3
20260509000541 15 0 3.2 24.1 0.00 0.00 0.00 37 1003.4
20260509000049 15 309 1.6 19.3 0.00 0.00 0.00 37 1003.4
20260508235542 16 257 3.2 19.3 0.00 0.00 0.00 36 1003.5
20260508235043 16 320 4.8 16.1 0.00 0.00 0.00 35 1003.6
20260508234554 16 0 3.2 16.1 0.00 0.00 0.00 37 1003.6
20260508234042 16 261 1.6 16.1 0.00 0.00 0.00 35 1003.6
20260508233542 16 0 1.6 20.9 0.00 0.00 0.00 34 1003.5
20260508233051 15 290 6.4 35.4 0.00 0.00 0.00 35 1003.6
20260508232542 15 310 6.4 35.4 0.00 0.00 0.00 35 1003.8
20260508232042 16 315 4.8 19.3 0.00 0.00 0.00 34 1003.9
20260508231552 15 321 6.4 22.5 0.00 0.00 0.00 33 1003.8
20260508231042 16 308 3.2 22.5 0.00 0.00 0.00 33 1003.8
20260508230542 16 329 4.8 19.3 0.00 0.00 0.00 33 1003.9
20260508230051 16 329 6.4 20.9 0.00 0.00 0.00 31 1003.9
20260508225543 16 311 4.8 20.9 0.00 0.00 0.00 32 1003.9
20260508225042 16 310 8.0 20.9 0.00 0.00 0.00 32 1004.0
20260508224550 16 333 6.4 19.3 0.00 0.00 0.00 33 1004.0
20260508224039 16 352 4.8 17.7 0.00 0.00 0.00 33 1004.0
20260508223540 16 322 6.4 22.5 0.00 0.00 0.00 33 1004.0
20260508223051 16 284 6.4 29.0 0.00 0.00 0.00 31 1004.0
20260508222540 16 296 8.0 29.0 0.00 0.00 0.00 32 1004.0
20260508222040 16 325 6.4 19.3 0.00 0.00 0.00 30 1004.0
20260508221557 16 291 6.4 30.6 0.00 0.00 0.00 30 1003.9
20260508221040 16 294 6.4 30.6 0.00 0.00 0.00 32 1004.0
20260508220545 16 321 6.4 30.6 0.00 0.00 0.00 31 1004.0
20260508220051 16 341 6.4 22.5 0.00 0.00 0.00 30 1003.9
20260508215542 16 5 4.8 19.3 0.00 0.00 0.00 33 1003.8
20260508215042 16 301 4.8 14.5 0.00 0.00 0.00 31 1003.8
20260508214546 16 307 3.2 32.2 0.00 0.00 0.00 33 1003.9
20260508214042 16 257 6.4 32.2 0.00 0.00 0.00 33 1003.7
20260508213541 16 302 4.8 22.5 0.00 0.00 0.00 31 1003.7
20260508213050 16 300 4.8 22.5 0.00 0.00 0.00 32 1003.6
20260508212543 17 340 6.4 32.2 0.00 0.00 0.00 33 1003.5
20260508212043 16 292 6.4 32.2 0.00 0.00 0.00 36 1003.4
20260508211549 17 319 4.8 20.9 0.00 0.00 0.00 36 1003.5
20260508211040 17 316 4.8 17.7 0.00 0.00 0.00 36 1003.3
20260508210540 17 316 4.8 24.1 0.00 0.00 0.00 35 1003.1
20260508210049 17 254 6.4 25.7 0.00 0.00 0.00 36 1003.1
20260508205539 17 319 8.0 25.7 0.00 0.00 0.00 35 1003.0
20260508205042 17 311 3.2 16.1 0.00 0.00 0.00 37 1003.0
20260508204551 17 265 3.2 16.1 0.00 0.00 0.00 35 1002.9
20260508204041 18 290 4.8 16.1 0.00 0.00 0.00 35 1002.9
20260508203542 18 255 6.4 16.1 0.00 0.00 0.00 35 1002.9
20260508203100 18 274 4.8 16.1 0.00 0.00 0.00 37 1002.8
20260508202542 18 257 4.8 17.7 0.00 0.00 0.00 36 1002.9
20260508202043 18 304 3.2 19.3 0.00 0.00 0.00 36 1002.9
20260508201559 18 280 4.8 37.0 0.00 0.00 0.00 36 1003.0
20260508201040 18 286 8.0 37.0 0.00 0.00 0.00 36 1002.8
20260508200539 18 282 4.8 22.5 0.00 0.00 0.00 34 1002.8
20260508200050 18 298 3.2 14.5 0.00 0.00 0.00 31 1002.9
20260508195541 18 257 3.2 17.7 0.00 0.00 0.00 31 1002.8
20260508195045 17 323 3.2 17.7 0.00 0.00 0.00 32 1002.8
20260508194550 17 0 3.2 20.9 0.00 0.00 0.00 31 1002.9
20260508194039 17 0 0.0 20.9 0.00 0.00 0.00 30 1002.9
20260508193539 17 261 4.8 16.1 0.00 0.00 0.00 30 1003.0
20260508193048 17 256 3.2 14.5 0.00 0.00 0.00 30 1003.0
20260508192541 18 250 4.8 12.9 0.00 0.00 0.00 30 1003.0
20260508192042 17 296 3.2 16.1 0.00 0.00 0.00 31 1003.1
20260508191550 17 0 3.2 16.1 0.00 0.00 0.00 29 1003.3
20260508191041 17 305 3.2 16.1 0.00 0.00 0.00 30 1003.2
20260508190542 17 248 4.8 16.1 0.00 0.00 0.00 29 1003.3
20260508190054 17 246 4.8 16.1 0.00 0.00 0.00 30 1003.3
20260508185548 17 288 3.2 14.5 0.00 0.00 0.00 30 1003.5
20260508185040 17 266 3.2 14.5 0.00 0.00 0.00 30 1003.6
20260508184556 17 248 3.2 12.9 0.00 0.00 0.00 30 1003.7
20260508184045 17 0 3.2 12.9 0.00 0.00 0.00 29 1003.7
20260508183539 17 0 0.0 11.3 0.00 0.00 0.00 32 1003.7
20260508183056 17 259 1.6 11.3 0.00 0.00 0.00 31 1003.8
20260508182542 17 0 3.2 14.5 0.00 0.00 0.00 30 1003.8
20260508182041 17 254 1.6 14.5 0.00 0.00 0.00 29 1003.9
20260508181602 17 248 3.2 11.3 0.00 0.00 0.00 29 1004.0
20260508181039 17 250 1.6 11.3 0.00 0.00 0.00 33 1004.0
20260508180540 17 263 1.6 11.3 0.00 0.00 0.00 33 1004.0
20260508180056 17 0 1.6 12.9 0.00 0.00 0.00 32 1004.2
20260508175539 16 0 0.0 12.9 0.00 0.00 0.00 31 1004.1
20260508175042 16 284 4.8 12.9 0.00 0.00 0.00 29 1004.3
20260508174605 16 0 0.0 12.9 0.00 0.00 0.00 32 1004.2
20260508174045 16 0 0.0 11.3 0.00 0.00 0.00 30 1004.4
20260508173539 16 0 0.0 12.9 0.00 0.00 0.00 32 1004.4
20260508173054 16 0 3.2 12.9 0.00 0.00 0.00 31 1004.6
20260508172542 16 284 0.0 11.3 0.00 0.00 0.00 34 1004.7
20260508172040 16 279 1.6 11.3 0.00 0.00 0.00 31 1004.7
20260508171543 16 0 1.6 11.3 0.00 0.00 0.00 32 1004.8
20260508171041 16 0 0.0 9.7 0.00 0.00 0.00 33 1004.7
20260508170542 15 0 0.0 6.4 0.00 0.00 0.00 34 1004.8
20260508170050 15 0 0.0 8.0 0.00 0.00 0.00 36 1004.8
20260508165539 16 246 0.0 9.7 0.00 0.00 0.00 33 1004.9
20260508165042 16 0 0.0 9.7 0.00 0.00 0.00 33 1005.0
20260508164553 16 0 0.0 9.7 0.00 0.00 0.00 33 1005.2
20260508164043 16 248 0.0 9.7 0.00 0.00 0.00 34 1005.2
20260508163542 16 0 0.0 8.0 0.00 0.00 0.00 35 1005.3
20260508163052 16 0 0.0 9.7 0.00 0.00 0.00 33 1005.3
20260508162539 15 0 0.0 9.7 0.00 0.00 0.00 35 1005.4
20260508162040 15 0 0.0 1.6 0.00 0.00 0.00 33 1005.4
20260508161549 15 0 0.0 1.6 0.00 0.00 0.00 35 1005.3
20260508161038 15 0 0.0 3.2 0.00 0.00 0.00 35 1005.4
20260508160542 15 185 0.0 3.2 0.00 0.00 0.00 37 1005.5
20260508160051 15 0 0.0 3.2 0.00 0.00 0.00 37 1005.6
20260508155545 14 0 0.0 0.0 0.00 0.00 0.00 38 1005.6
20260508155044 13 0 0.0 0.0 0.00 0.00 0.00 38 1005.6
20260508154551 13 0 0.0 0.0 0.00 0.00 0.00 38 1005.6
20260508154044 13 0 0.0 0.0 0.00 0.00 0.00 43 1005.7
20260508153544 13 0 0.0 0.0 0.00 0.00 0.00 38 1005.8
20260508153054 14 0 0.0 3.2 0.00 0.00 0.00 38 1005.7
20260508152544 14 0 0.0 3.2 0.00 0.00 0.00 36 1005.7
20260508152043 15 0 0.0 4.8 0.00 0.00 0.00 37 1005.9
20260508151554 14 0 0.0 4.8 0.00 0.00 0.00 39 1005.8
20260508151044 14 125 0.0 1.6 0.00 0.00 0.00 39 1005.8
20260508150545 13 0 0.0 1.6 0.00 0.00 0.00 40 1006.0
20260508150048 13 0 0.0 1.6 0.00 0.00 0.00 43 1005.8
20260508145544 12 0 0.0 0.0 0.00 0.00 0.00 46 1005.9
20260508145042 12 0 0.0 0.0 0.00 0.00 0.00 52 1005.9
20260508144552 11 0 0.0 0.0 0.00 0.00 0.00 48 1006.2
20260508144043 11 0 0.0 0.0 0.00 0.00 0.00 51 1006.5
20260508143539 11 0 0.0 0.0 0.00 0.00 0.00 52 1006.5
20260508143048 11 0 0.0 0.0 0.00 0.00 0.00 54 1006.6
20260508142544 11 0 0.0 0.0 0.00 0.00 0.00 54 1006.5
20260508142044 10 0 0.0 0.0 0.00 0.00 0.00 55 1006.4
20260508141612 10 0 0.0 0.0 0.00 0.00 0.00 54 1006.6
20260508141044 10 0 0.0 0.0 0.00 0.00 0.00 55 1006.6
20260508140543 10 0 0.0 0.0 0.00 0.00 0.00 55 1006.6
20260508140055 9 0 0.0 0.0 0.00 0.00 0.00 56 1006.7
20260508135544 8 0 0.0 0.0 0.00 0.00 0.00 58 1006.7
20260508135044 8 0 0.0 0.0 0.00 0.00 0.00 60 1006.8
20260508134602 8 0 0.0 0.0 0.00 0.00 0.00 60 1006.9
20260508134043 8 0 0.0 0.0 0.00 0.00 0.00 60 1007.1
20260508133543 7 0 0.0 0.0 0.00 0.00 0.00 60 1007.1
20260508133050 7 0 0.0 0.0 0.00 0.00 0.00 62 1007.3
20260508132542 7 0 0.0 0.0 0.00 0.00 0.00 63 1007.3
20260508132040 6 0 0.0 0.0 0.00 0.00 0.00 63 1007.3
20260508131551 6 0 0.0 0.0 0.00 0.00 0.00 69 1007.2
20260508131044 5 0 0.0 0.0 0.00 0.00 0.00 68 1007.1
20260508130543 5 0 0.0 0.0 0.00 0.00 0.00 74 1007.0
20260508130053 3 0 0.0 0.0 0.00 0.00 0.00 76 1007.2
20260508125543 3 0 0.0 0.0 0.00 0.00 0.00 78 1007.3
20260508125044 2 0 0.0 0.0 0.00 0.00 0.00 83 1007.3
20260508124556 1 0 0.0 0.0 0.00 0.00 0.00 86 1007.3
20260508124044 0 0 0.0 0.0 0.00 0.00 0.00 91 1007.3
20260508123544 0 0 0.0 0.0 0.00 0.00 0.00 91 1007.3
20260508123050 0 0 0.0 0.0 0.00 0.00 0.00 90 1007.3
20260508122540 -1 0 0.0 0.0 0.00 0.00 0.00 90 1007.3
20260508122043 -1 0 0.0 0.0 0.00 0.00 0.00 90 1007.3
20260508121559 -1 0 0.0 0.0 0.00 0.00 0.00 89 1007.2
20260508121040 -1 0 0.0 0.0 0.00 0.00 0.00 89 1007.2
20260508120542 -1 0 0.0 0.0 0.00 0.00 0.00 90 1007.1
20260508120052 -1 0 0.0 0.0 0.00 0.00 0.00 90 1007.2
20260508115543 -1 0 0.0 0.0 0.00 0.00 0.00 90 1007.1
20260508115042 -1 0 0.0 0.0 0.00 0.00 0.00 90 1007.1
20260508114551 -1 0 0.0 0.0 0.00 0.00 0.00 90 1007.0
20260508114044 -1 0 0.0 0.0 0.00 0.00 0.00 90 1006.9
20260508113545 -2 0 0.0 0.0 0.00 0.00 0.00 90 1006.9
20260508113105 -2 0 0.0 0.0 0.00 0.00 0.00 91 1006.9
20260508112541 -2 0 0.0 0.0 0.00 0.00 0.00 90 1006.9
20260508112040 -2 0 0.0 0.0 0.00 0.00 0.00 90 1006.9
20260508111601 -2 0 0.0 0.0 0.00 0.00 0.00 89 1007.0
20260508111042 -2 0 0.0 0.0 0.00 0.00 0.00 89 1007.0
20260508110544 -2 0 0.0 0.0 0.00 0.00 0.00 89 1007.0
20260508110059 -2 0 0.0 0.0 0.00 0.00 0.00 88 1007.0
20260508105545 -2 0 0.0 0.0 0.00 0.00 0.00 88 1007.0
20260508105044 -2 0 0.0 0.0 0.00 0.00 0.00 88 1007.1
20260508104554 -2 0 0.0 0.0 0.00 0.00 0.00 88 1007.2
20260508104043 -2 0 0.0 0.0 0.00 0.00 0.00 88 1007.2
20260508103543 -2 0 0.0 0.0 0.00 0.00 0.00 88 1007.2
20260508103052 -2 0 0.0 0.0 0.00 0.00 0.00 88 1007.1
20260508102544 -2 0 0.0 0.0 0.00 0.00 0.00 88 1007.3
20260508102044 -2 0 0.0 0.0 0.00 0.00 0.00 88 1007.3
20260508101549 -2 0 0.0 0.0 0.00 0.00 0.00 88 1007.4
20260508101043 -3 0 0.0 0.0 0.00 0.00 0.00 88 1007.5
20260508100543 -3 0 0.0 0.0 0.00 0.00 0.00 88 1007.5
20260508100051 -3 0 0.0 0.0 0.00 0.00 0.00 88 1007.5
20260508095540 -3 0 0.0 0.0 0.00 0.00 0.00 88 1007.5
20260508095044 -3 0 0.0 0.0 0.00 0.00 0.00 88 1007.5
20260508094555 -3 0 0.0 0.0 0.00 0.00 0.00 87 1007.6
20260508094044 -3 0 0.0 0.0 0.00 0.00 0.00 87 1007.6
20260508093540 -3 0 0.0 0.0 0.00 0.00 0.00 87 1007.8
20260508093053 -3 0 0.0 0.0 0.00 0.00 0.00 87 1007.8
20260508092543 -3 0 0.0 0.0 0.00 0.00 0.00 87 1007.8
20260508092043 -3 0 0.0 0.0 0.00 0.00 0.00 87 1007.8
20260508091554 -3 0 0.0 0.0 0.00 0.00 0.00 86 1007.8
20260508091046 -3 0 0.0 0.0 0.00 0.00 0.00 86 1007.8
20260508090543 -3 0 0.0 0.0 0.00 0.00 0.00 86 1007.9
20260508090053 -3 0 0.0 0.0 0.00 0.00 0.00 86 1007.8
20260508085542 -3 0 0.0 0.0 0.00 0.00 0.00 86 1007.9
20260508085046 -3 0 0.0 0.0 0.00 0.00 0.00 86 1007.9
20260508084554 -3 0 0.0 0.0 0.00 0.00 0.00 86 1007.9
20260508084043 -3 0 0.0 0.0 0.00 0.00 0.00 86 1007.9
20260508083539 -3 0 0.0 0.0 0.00 0.00 0.00 85 1007.8
20260508083108 -2 0 0.0 0.0 0.00 0.00 0.00 86 1007.9
20260508082545 -2 0 0.0 0.0 0.00 0.00 0.00 86 1007.9
20260508082042 -2 0 0.0 0.0 0.00 0.00 0.00 85 1007.9
20260508081605 -2 0 0.0 0.0 0.00 0.00 0.00 85 1007.9
20260508081043 -2 0 0.0 0.0 0.00 0.00 0.00 85 1007.9
20260508080544 -2 0 0.0 0.0 0.00 0.00 0.00 84 1007.9
20260508080054 -2 0 0.0 0.0 0.00 0.00 0.00 84 1007.9
20260508075543 -2 0 0.0 0.0 0.00 0.00 0.00 84 1008.0
20260508075043 -2 0 0.0 0.0 0.00 0.00 0.00 83 1007.9
20260508074554 -2 0 0.0 0.0 0.00 0.00 0.00 83 1007.9
20260508074044 -2 0 0.0 0.0 0.00 0.00 0.00 83 1007.9
20260508073543 -2 0 0.0 0.0 0.00 0.00 0.00 82 1007.9
20260508073053 -2 0 0.0 0.0 0.00 0.00 0.00 82 1008.0
20260508072542 -2 0 0.0 0.0 0.00 0.00 0.00 83 1008.0
20260508072043 -2 0 0.0 0.0 0.00 0.00 0.00 82 1008.0
20260508071548 -2 0 0.0 0.0 0.00 0.00 0.00 81 1008.0
20260508071043 -2 0 0.0 0.0 0.00 0.00 0.00 81 1007.9
20260508070544 -2 0 0.0 0.0 0.00 0.00 0.00 81 1007.9
20260508070053 -2 0 0.0 0.0 0.00 0.00 0.00 81 1007.9
20260508065543 -2 0 0.0 0.0 0.00 0.00 0.00 80 1007.9
20260508065042 -2 0 0.0 0.0 0.00 0.00 0.00 80 1008.0
20260508064548 -1 0 0.0 0.0 0.00 0.00 0.00 79 1008.1
20260508064043 -1 0 0.0 0.0 0.00 0.00 0.00 78 1008.1
20260508063543 -1 0 0.0 0.0 0.00 0.00 0.00 78 1008.1
20260508063050 -1 0 0.0 0.0 0.00 0.00 0.00 79 1008.2
20260508062543 -1 0 0.0 0.0 0.00 0.00 0.00 79 1008.1
20260508062043 -1 0 0.0 0.0 0.00 0.00 0.00 79 1008.2
20260508061552 -1 0 0.0 0.0 0.00 0.00 0.00 78 1008.2
20260508061043 -1 0 0.0 0.0 0.00 0.00 0.00 77 1008.3
20260508060543 -1 0 0.0 0.0 0.00 0.00 0.00 76 1008.2
20260508060048 -1 0 0.0 0.0 0.00 0.00 0.00 75 1008.2
20260508055542 -1 0 0.0 0.0 0.00 0.00 0.00 76 1008.3
20260508055042 -1 0 0.0 0.0 0.00 0.00 0.00 77 1008.3
20260508054547 -1 0 0.0 0.0 0.00 0.00 0.00 76 1008.4
20260508054045 -1 0 0.0 0.0 0.00 0.00 0.00 75 1008.4
20260508053542 -1 0 0.0 0.0 0.00 0.00 0.00 75 1008.4
20260508053052 -1 0 0.0 0.0 0.00 0.00 0.00 75 1008.4
20260508052542 0 0 0.0 0.0 0.00 0.00 0.00 74 1008.4
20260508052042 0 0 0.0 0.0 0.00 0.00 0.00 74 1008.4
20260508051550 0 0 0.0 0.0 0.00 0.00 0.00 74 1008.4
20260508051042 0 0 0.0 0.0 0.00 0.00 0.00 74 1008.6
20260508050543 0 0 0.0 0.0 0.00 0.00 0.00 72 1008.5
20260508050052 0 0 0.0 0.0 0.00 0.00 0.00 71 1008.6
20260508045544 0 0 0.0 0.0 0.00 0.00 0.00 71 1008.4
20260508045042 0 0 0.0 0.0 0.00 0.00 0.00 71 1008.5
20260508044554 0 0 0.0 0.0 0.00 0.00 0.00 70 1008.5
20260508044045 0 0 0.0 0.0 0.00 0.00 0.00 68 1008.6
20260508043542 0 0 0.0 0.0 0.00 0.00 0.00 68 1008.6
20260508043051 0 0 0.0 0.0 0.00 0.00 0.00 68 1008.6
20260508042543 0 0 0.0 0.0 0.00 0.00 0.00 68 1008.6
20260508042042 0 0 0.0 0.0 0.00 0.00 0.00 68 1008.6
20260508041552 0 0 0.0 0.0 0.00 0.00 0.00 69 1008.7
20260508041042 0 0 0.0 0.0 0.00 0.00 0.00 67 1008.7
20260508040543 1 0 0.0 0.0 0.00 0.00 0.00 65 1008.7
20260508040053 1 0 0.0 0.0 0.00 0.00 0.00 64 1008.7
20260508035543 1 0 0.0 0.0 0.00 0.00 0.00 63 1008.8
20260508035043 2 0 0.0 0.0 0.00 0.00 0.00 62 1008.7
20260508034549 2 0 0.0 0.0 0.00 0.00 0.00 61 1008.7
20260508034042 2 0 0.0 0.0 0.00 0.00 0.00 60 1008.8
20260508033543 2 0 0.0 0.0 0.00 0.00 0.00 60 1008.7
20260508033054 3 0 0.0 0.0 0.00 0.00 0.00 57 1008.8
20260508032543 3 0 0.0 0.0 0.00 0.00 0.00 57 1008.7
20260508032045 3 0 0.0 0.0 0.00 0.00 0.00 56 1008.7
20260508031550 3 0 0.0 0.0 0.00 0.00 0.00 56 1008.8
20260508031042 4 0 0.0 0.0 0.00 0.00 0.00 56 1008.8
20260508030543 5 0 0.0 0.0 0.00 0.00 0.00 55 1008.7
20260508030052 5 0 0.0 0.0 0.00 0.00 0.00 53 1008.8
20260508025543 5 0 0.0 0.0 0.00 0.00 0.00 52 1008.7
20260508025043 6 0 0.0 0.0 0.00 0.00 0.00 50 1008.6
20260508024551 6 0 0.0 0.0 0.00 0.00 0.00 48 1008.6
20260508024043 6 0 0.0 0.0 0.00 0.00 0.00 47 1008.6
20260508023544 7 0 0.0 0.0 0.00 0.00 0.00 47 1008.5
20260508023055 7 0 0.0 0.0 0.00 0.00 0.00 45 1008.4
20260508022543 8 0 0.0 0.0 0.00 0.00 0.00 44 1008.6